Back to catalog

STARLINK-30902

AliveCommunicationsVLEO
NORAD 58421·PAYLOAD·🇺🇸 United States

Launched Nov 22, 2023 from Cape Canaveral Space Force Station

Loading…

Next Passes (next 24 hours)

TLE

FreshSource: CelesTrak SupGP

Epoch: Sep 14, 2026, 14:14 UTC

1 58421C 23180V   26257.59354167 -.00019637  00000+0 -71147-3 0  2573
2 58421  43.0011  65.6746 0001395 265.0506 211.3134 15.27577956    17

Track STARLINK-30902 in real time with AllMySat

Download on the App Store